Weather History for Pascagoula, MS

Change the Weather History Date:

Friday, January 3, 2014

  Actual Average Record
Temperature  
Mean Temperature 36 °F -  
Max Temperature 45 °F 59 °F 75 °F (1955)
Min Temperature 27 °F 43 °F 19 °F (2001)
Degree Days  
Heating Degree Days 29    
Moisture  
Dew Point 19 °F    
Average Humidity 58    
Maximum Humidity 89    
Minimum Humidity 28    
Precipitation  
Precipitation 0.00 in - - ()
Sea Level Pressure  
Sea Level Pressure 30.37 in    
Wind  
Wind Speed 10 mph (North)    
Max Wind Speed 16 mph    
Max Gust Speed 25 mph    
Visibility 10 miles    
Events      
Averages and records for this station are not official NWS values.
T = Trace of Precipitation, MM = Missing Value Source: NWS Daily Summary

Daily Weather History Graph

Daily Weather History Graph

Search for Another Location

Airport:

Trip Planner

Search our weather history database for the weather conditions in past years. The results will help you decide how hot, cold, wet, or windy it might be!

Date:

Astronomy

Jan. 03, 2014 Rise Set
Actual Time 6:51 AM CST 5:06 PM CST
Civil Twilight 6:25 AM CST 5:32 PM CST
Nautical Twilight 5:55 AM CST 6:02 PM CST
Astronomical Twilight 5:26 AM CST 6:31 PM CST
Moon 8:29 AM CST (1/3) 8:01 PM CST (1/3)
Length of Visible Light 11h 07m
Length of Day
10h 14m
Waxing Crescent, 8% of the Moon is Illuminated
Jan 3
Waxing Crescent
Jan 7
First Quarter
Jan 15
Full
Jan 23
Last Quarter
Jan 30
New

Hourly Weather History & Observations

Time (CST) Temp. Windchill Dew Point Humidity Pressure Visibility Wind Dir Wind Speed Gust Speed Precip Events Conditions
12:53 AM 35.1 °F 26.9 °F 25.0 °F 67% 30.35 in 10.0 mi North 11.5 mph 21.9 mph N/A   Clear
1:53 AM 33.1 °F 25.5 °F 23.0 °F 66% 30.37 in 10.0 mi North 9.2 mph 17.3 mph N/A   Clear
2:53 AM 32.0 °F 22.5 °F 21.9 °F 66% 30.37 in 10.0 mi North 12.7 mph - N/A   Clear
3:53 AM 30.0 °F 20.0 °F 21.9 °F 72% 30.37 in 10.0 mi North 12.7 mph 20.7 mph N/A   Clear
4:53 AM 30.0 °F 18.7 °F 19.9 °F 66% 30.39 in 10.0 mi North 16.1 mph 21.9 mph N/A   Clear
5:53 AM 28.9 °F 19.8 °F 19.0 °F 67% 30.42 in 10.0 mi North 10.4 mph 23.0 mph N/A   Clear
6:53 AM 28.0 °F 18.1 °F 17.1 °F 63% 30.43 in 10.0 mi NNE 11.5 mph - N/A   Clear
7:53 AM 30.0 °F 19.1 °F 18.0 °F 61% 30.44 in 10.0 mi North 15.0 mph 19.6 mph N/A   Clear
8:53 AM 32.0 °F 21.2 °F 16.0 °F 52% 30.44 in 10.0 mi North 16.1 mph 21.9 mph 0.00 in   Clear
9:53 AM 36.0 °F 26.3 °F 17.1 °F 46% 30.42 in 10.0 mi NNE 16.1 mph - N/A   Clear
10:53 AM 37.0 °F 28.9 °F 12.9 °F 37% 30.41 in 10.0 mi NNE 12.7 mph 25.3 mph N/A   Clear
11:53 AM 41.0 °F 33.5 °F 14.0 °F 33% 30.39 in 10.0 mi NNE 13.8 mph 18.4 mph N/A   Clear
12:53 PM 43.0 °F 36.0 °F 14.0 °F 31% 30.36 in 10.0 mi North 13.8 mph - N/A   Clear
1:53 PM 45.0 °F 38.5 °F 15.1 °F 30% 30.34 in 10.0 mi North 13.8 mph 19.6 mph N/A   Clear
2:53 PM 45.0 °F 39.7 °F 15.1 °F 30% 30.33 in 10.0 mi North 10.4 mph - N/A   Clear
3:53 PM 44.1 °F 38.1 °F 12.9 °F 28% 30.34 in 10.0 mi North 11.5 mph - N/A   Clear
4:53 PM 39.9 °F 35.1 °F 16.0 °F 38% 30.35 in 10.0 mi North 6.9 mph - N/A   Clear
5:53 PM 35.1 °F - 23.0 °F 61% 30.35 in 10.0 mi Calm Calm - N/A   Clear
6:53 PM 30.9 °F - 24.1 °F 76% 30.35 in 10.0 mi Calm Calm - N/A   Clear
7:53 PM 33.1 °F - 21.0 °F 61% 30.36 in 10.0 mi Calm Calm - N/A   Clear
8:53 PM 28.9 °F - 24.1 °F 82% 30.37 in 10.0 mi Calm Calm - N/A   Clear
9:53 PM 27.0 °F - 24.1 °F 89% 30.37 in 10.0 mi Calm Calm - N/A   Clear
10:53 PM 28.9 °F - 24.1 °F 82% 30.35 in 10.0 mi Calm Calm - N/A   Clear
11:53 PM 28.0 °F - 23.0 °F 81% 30.32 in 10.0 mi Calm Calm - N/A   Clear